Weather History for KIRK - October, 2014

Change the Weather History Date:

Friday, October 3, 2014

  Actual Average Record
Temperature  
Mean Temperature 49 °F 58 °F  
Max Temperature 58 °F 69 °F 93 °F (1997)
Min Temperature 40 °F 46 °F 27 °F (1987)
Degree Days  
Heating Degree Days 16 8  
Month to date heating degree days 19 24  
Since 1 July heating degree days 125 131  
Cooling Degree Days 0 1  
Month to date cooling degree days 0 3  
Year to date cooling degree days 955 930  
Moisture  
Dew Point 43 °F    
Average Humidity 73    
Maximum Humidity 96    
Minimum Humidity 50    
Precipitation  
Precipitation T in 0.12 in 4.50 in (1973)
Month to date precipitation 2.04 0.37  
Year to date precipitation 40.20 31.89  
Sea Level Pressure  
Sea Level Pressure 29.91 in    
Wind  
Wind Speed 14 mph (NW)    
Max Wind Speed 26 mph    
Max Gust Speed 36 mph    
Visibility 10 miles    
Events      
T = Trace of Precipitation, MM = Missing Value Source: NWS Daily Summary

Daily Weather History Graph

Daily Weather History Graph

Search for Another Location

Airport or City:

Trip Planner

Search our weather history database for the weather conditions in past years. The results will help you decide how hot, cold, wet, or windy it might be!

Date:

Astronomy

Oct. 03, 2014 Rise Set
Actual Time 7:08 AM CDT 6:49 PM CDT
Civil Twilight 6:41 AM CDT 7:16 PM CDT
Nautical Twilight 6:10 AM CDT 7:47 PM CDT
Astronomical Twilight 5:38 AM CDT 8:19 PM CDT
Moon 3:43 PM CDT (10/3) 1:29 AM CDT (10/3)
Length of Visible Light 12h 34m
Length of Day
11h 40m
Waxing Gibbous, 71% of the Moon is Illuminated
Oct 3
Waxing Gibbous
Oct 8
Full
Oct 15
Last Quarter
Oct 23
New
Oct 30
First Quarter

Hourly Weather History & Observations

Time (CDT) Temp. Windchill Dew Point Humidity Pressure Visibility Wind Dir Wind Speed Gust Speed Precip Events Conditions
12:24 AM 57.9 °F - 55.0 °F 90% 29.70 in 10.0 mi NNW 16.1 mph 25.3 mph N/A   Overcast
12:33 AM 57.9 °F - 55.0 °F 90% 29.72 in 10.0 mi NW 15.0 mph 21.9 mph N/A   Overcast
12:47 AM 57.2 °F - 55.4 °F 94% 29.72 in 10.0 mi NW 13.8 mph 26.5 mph N/A   Overcast
12:55 AM 57.9 °F - 55.0 °F 90% 29.73 in 10.0 mi NNW 15.0 mph 25.3 mph N/A   Overcast
1:24 AM 57.0 °F - 54.0 °F 89% 29.74 in 10.0 mi NNW 15.0 mph 23.0 mph N/A   Overcast
1:34 AM 57.0 °F - 53.1 °F 87% 29.74 in 10.0 mi NNW 16.1 mph 24.2 mph N/A   Overcast
1:55 AM 57.0 °F - 53.1 °F 87% 29.75 in 10.0 mi NNW 10.4 mph 18.4 mph N/A   Overcast
2:33 AM 55.9 °F - 53.1 °F 90% 29.76 in 10.0 mi NW 15.0 mph 20.7 mph N/A   Overcast
2:55 AM 55.9 °F - 52.0 °F 87% 29.75 in 10.0 mi NW 13.8 mph - N/A   Overcast
3:55 AM 54.0 °F - 51.1 °F 90% 29.78 in 10.0 mi WNW 11.5 mph - N/A   Clear
4:55 AM 52.0 °F - 50.0 °F 93% 29.80 in 10.0 mi WNW 8.1 mph - N/A   Clear
5:55 AM 50.0 °F - 48.9 °F 96% 29.84 in 10.0 mi West 5.8 mph - N/A   Clear
6:55 AM 53.1 °F - 50.0 °F 89% 29.88 in 10.0 mi NW 20.7 mph 31.1 mph N/A   Mostly Cloudy
7:55 AM 52.0 °F - 46.0 °F 80% 29.92 in 10.0 mi NW 18.4 mph 26.5 mph N/A   Mostly Cloudy
8:55 AM 52.0 °F - 44.1 °F 74% 29.94 in 10.0 mi NW 16.1 mph 26.5 mph N/A   Mostly Cloudy
9:16 AM 53.1 °F - 44.1 °F 71% 29.94 in 10.0 mi NW 16.1 mph 29.9 mph N/A   Scattered Clouds
9:44 AM 51.1 °F - 43.0 °F 74% 29.96 in 10.0 mi NW 20.7 mph 33.4 mph N/A   Overcast
9:55 AM 50.0 °F - 39.9 °F 68% 29.98 in 10.0 mi WNW 20.7 mph 33.4 mph N/A   Overcast
10:55 AM 48.9 °F - 37.9 °F 66% 30.01 in 10.0 mi NW 18.4 mph 33.4 mph N/A   Mostly Cloudy
11:55 AM 48.0 °F - 37.9 °F 68% 30.04 in 10.0 mi WNW 15.0 mph 26.5 mph N/A   Overcast
12:55 PM 50.0 °F - 36.0 °F 59% 30.04 in 10.0 mi NW 24.2 mph 31.1 mph N/A   Mostly Cloudy
1:55 PM 48.9 °F - 35.1 °F 59% 30.03 in 10.0 mi WNW 19.6 mph 32.2 mph N/A   Overcast
2:55 PM 48.9 °F - 34.0 °F 56% 30.03 in 10.0 mi WNW 13.8 mph 25.3 mph N/A   Overcast
3:55 PM 52.0 °F - 34.0 °F 50% 30.04 in 10.0 mi WNW 16.1 mph 33.4 mph 0.00 in   Overcast
4:55 PM 48.9 °F - 30.9 °F 50% 30.04 in 10.0 mi WNW 24.2 mph 32.2 mph 0.00 in   Mostly Cloudy
5:55 PM 48.0 °F - 32.0 °F 54% 30.06 in 10.0 mi WNW 17.3 mph 25.3 mph 0.00 in   Overcast
6:55 PM 46.0 °F 41.4 °F 33.1 °F 61% 30.06 in 10.0 mi WNW 9.2 mph - N/A   Overcast
7:55 PM 44.1 °F 40.8 °F 35.1 °F 71% 30.06 in 10.0 mi West 5.8 mph - N/A   Overcast
8:55 PM 45.0 °F 40.6 °F 34.0 °F 65% 30.06 in 10.0 mi WNW 8.1 mph - N/A   Overcast
9:55 PM 43.0 °F 38.2 °F 35.1 °F 74% 30.06 in 10.0 mi West 8.1 mph - N/A   Overcast
10:55 PM 43.0 °F 38.2 °F 32.0 °F 65% 30.04 in 10.0 mi West 8.1 mph - N/A   Mostly Cloudy
11:55 PM 41.0 °F 36.4 °F 32.0 °F 70% 30.02 in 10.0 mi West 6.9 mph - N/A   Clear